User: anonymous
Location: St. Malo Provincial Park
(49.3214°N, 96.9305°W)
Time: 01:23:14
(UTC-05:00)
Language:

Iridium 6 - Orbit

View from above orbital plane
View from above orbital plane
View from above satellite
View from above satellite

Ground track
Ground track

The orbit data is extracted from the following two-line orbital elements,

1 24794U 97020C   14274.34822396  .00000590  00000-0  20369-3 0  8041
2 24794 086.4015 012.6207 0002235 107.0938 253.0502 14.34227051911322
Epoch (UTC): 01 October 2014 08:21:26
Eccentricity: 0.0002235
inclination: 86.4015°
perigee height: 776 km
apogee height: 779 km
right ascension of ascending node: 12.6207°
argument of perigee: 107.0938°
revolutions per day: 14.34227051
mean anomaly at epoch: 253.0502°
orbit number at epoch: 91132

The dashed part of the orbit path shows where the satellite is in the earth's shadow,  

DLR